{"data":{"norad_id":42749,"intl_designator":"2017-032A","name":"ECHOSTAR 21","alt_names":[],"object_type":"PAYLOAD","status":"ACTIVE","operator":null,"country":"US","launch_date":"2017-06-08","launch_site_code":"TYMSC","launch_vehicle":null,"mission":null,"orbit_class":"UNKNOWN","rcs_meters":null,"size_class":null,"mass_kg":null,"dimensions":null,"purposes":["comms"],"wikipedia_slug":null,"has_3d_model":false,"image_url":null,"decayed_at":null,"tle_current":{"epoch":"2026-05-25T03:47:31.981920Z","epoch_age_seconds":55423,"freshness":"FRESH","line1":"1 42749U 17032A   26145.15800905  .00000060  00000+0  00000+0 0  9999","line2":"2 42749   1.7738 354.2518 0002333  67.5088 248.1173  1.00271511 32860","mean_motion":1.00271511,"eccentricity":0.0002333,"inclination_deg":1.7738,"raan_deg":354.2518,"arg_perigee_deg":67.5088,"mean_anomaly_deg":248.1173,"bstar":0,"rev_number":3286,"period_min":1436.1008282801,"perigee_km":35776.834723625,"apogee_km":35796.508823399,"semimajor_km":42164.808773512,"source":"CELESTRAK","updated_at":"2026-05-25T13:38:14.045680Z"}}}